Theta_e
322 326 327 329 328 332 333 335 336 340 337 334 332 331 330 332 335 337 340 340 340 338 338 338 330 331 330 328 332 333 329 331 333 330 329 331 334 331 330 335 340 341 341
321 325 327 327 329 331 333 335 336 338 337 334 334 333 332 333 336 338 340 340 339 338 337 335 334 330 326 330 331 331 330 330 334 328 327 322 326 331 335 336 339 338 340
320 324 325 327 329 331 333 334 337 338 338 338 336 336 337 336 334 335 336 338 338 338 336 335 331 331 330 331 333 332 329 328 333 334 328 321 317 323 333 336 337 338 340
322 324 326 328 330 331 333 335 337 338 338 338 335 335 330 328 335 335 338 337 337 336 336 335 333 334 334 334 334 332 331 332 330 333 331 331 327 318 323 334 337 339 339
322 325 326 328 329 331 333 335 337 337 337 337 337 334 333 334 335 335 334 337 337 335 333 336 334 334 336 336 334 331 330 335 333 329 332 332 327 330 328 324 328 333 335
323 325 327 328 329 331 333 335 335 335 337 337 338 336 335 333 332 332 332 335 337 336 335 334 335 336 336 333 333 333 332 334 335 334 331 332 325 325 330 328 326 326 328
324 324 325 326 328 329 331 332 333 333 336 336 337 336 336 334 334 333 334 332 334 334 334 335 335 335 335 335 334 334 333 334 335 335 330 333 333 334 335 332 325 322 325
325 325 325 327 327 329 330 330 332 332 333 335 336 336 336 336 335 334 333 335 334 335 336 335 336 335 335 335 335 333 333 335 336 332 331 332 333 335 340 336 325 320 322
324 324 326 327 328 329 330 331 330 331 333 335 335 337 336 337 336 335 336 334 335 332 335 335 335 335 335 335 336 336 335 336 336 335 335 335 333 341 339 338 336 326 318
324 325 326 327 328 330 331 332 330 331 333 334 335 335 336 337 336 336 334 333 334 333 334 334 334 335 335 334 335 334 335 334 332 327 329 333 337 339 334 337 337 335 327
323 324 325 327 329 330 330 329 330 330 332 333 334 336 336 335 336 335 334 334 334 334 333 333 334 333 334 337 336 334 333 331 333 333 332 332 334 333 332 336 332 328 327
323 324 325 326 327 328 328 327 329 329 331 332 333 335 335 334 336 334 335 335 334 333 332 332 332 332 334 335 331 331 332 330 329 330 331 332 332 332 332 333 332 330 327
323 324 324 325 326 327 326 326 328 328 329 330 331 335 334 335 334 334 335 334 333 333 332 332 333 330 332 331 331 330 329 330 331 330 329 331 332 327 327 329 333 331 327
322 323 324 325 326 326 324 325 326 329 328 328 331 334 333 333 334 335 335 333 334 332 332 332 331 329 329 329 329 329 330 330 333 331 332 331 330 326 327 329 330 330 328
322 322 323 325 325 325 324 324 326 328 328 327 330 333 334 334 334 334 334 334 335 334 333 332 330 329 329 328 329 329 329 328 331 334 332 332 328 323 325 330 332 328 324
321 323 324 325 325 324 323 324 325 327 328 327 329 332 333 333 333 334 334 334 333 333 333 333 332 330 327 308 313 323 330 330 331 332 332 331 325 320 313 315 316 323 324
322 323 324 326 326 324 324 325 325 327 327 326 329 331 332 332 332 333 333 334 334 335 333 332 332 328 329 306 308 312 331 331 332 332 328 327 330 327 324 312 312 311 311
323 324 325 327 327 326 325 326 326 326 325 325 327 331 330 331 332 333 334 334 336 334 331 328 330 329 326 305 305 310 331 332 334 331 334 332 331 325 328 327 323 320 321
327 327 328 329 329 326 326 325 325 324 324 324 326 330 330 331 331 331 335 336 334 325 328 329 327 328 324 301 304 315 331 332 332 334 332 332 331 305 309 325 320 318 313
329 328 329 330 329 327 326 326 324 323 323 324 325 331 331 331 330 330 334 336 336 333 330 328 324 314 319 300 302 318 327 327 328 331 331 308 318 302 307 326 327 320 318
329 330 330 329 329 327 327 325 324 323 324 326 326 329 332 331 333 332 335 336 334 334 332 329 329 328 323 313 302 309 326 327 325 327 327 319 299 301 306 312 331 323 324
328 329 329 329 329 328 326 324 324 326 325 326 326 327 332 331 332 333 333 335 335 333 332 331 330 327 329 313 304 301 311 317 327 326 327 320 298 300 303 313 300 302 313
327 329 329 329 329 328 326 324 326 326 325 325 326 327 331 331 333 332 330 331 334 331 331 330 329 329 331 329 302 300 304 307 331 332 317 299 297 299 301 297 300 300 327
326 329 329 328 328 328 327 326 327 326 325 325 326 327 328 330 331 330 328 327 329 329 326 326 328 329 330 330 330 328 327 309 323 310 322 316 310 299 310 311 312 329 329
325 328 328 328 328 328 327 328 327 326 325 326 327 327 327 329 330 329 327 324 328 323 325 325 325 328 329 329 321 323 330 331 323 325 327 327 329 328 327 324 325 326 325
324 326 329 329 328 328 327 328 328 326 326 326 326 326 324 327 327 329 328 298 305 305 303 305 315 323 307 303 303 304 301 299 302 325 327 326 326 325 325 325 325 326 320
Wind_Speed
22 15 7 7 4 7 11 14 15 15 13 11 10 8 8 7 6 5 7 8 8 9 7 5 7 6 5 6 9 5 8 5 5 4 4 6 7 6 6 6 5 6 6
19 12 4 4 7 9 11 14 16 16 12 9 7 5 5 5 4 3 4 7 8 7 7 7 6 6 7 9 9 9 6 5 7 6 6 6 5 6 7 6 6 6 6
18 12 6 6 9 12 14 15 17 16 12 10 7 5 4 4 6 6 5 5 6 8 5 7 8 9 10 6 7 9 9 7 7 9 4 4 5 9 6 7 6 7 6
15 7 8 9 10 12 15 17 17 15 11 10 7 5 4 4 1 3 2 4 5 5 6 8 8 9 5 8 8 7 7 7 7 6 6 5 1 7 5 5 6 6 6
8 9 10 11 13 14 16 16 16 13 12 9 7 7 4 3 3 3 4 5 4 3 6 7 9 7 6 8 7 6 7 5 5 4 4 4 5 4 5 6 4 3 2
7 10 12 14 15 16 16 15 15 12 11 9 7 4 4 3 3 4 5 3 2 4 6 6 6 7 6 5 5 6 7 5 5 5 4 4 5 6 3 7 6 5 3
11 14 16 17 18 18 17 14 14 13 11 10 7 6 4 3 4 5 2 1 3 5 6 6 5 5 5 5 5 7 6 5 4 5 5 3 2 2 3 6 5 3 2
12 15 17 18 18 18 16 15 14 12 11 9 7 5 5 3 3 2 3 1 3 4 6 5 5 5 5 6 6 5 5 6 4 6 4 3 2 3 3 6 8 5 2
13 16 18 17 18 16 15 14 13 11 11 9 7 5 5 2 2 1 2 3 5 6 5 5 5 5 5 5 5 4 6 5 4 4 6 5 4 3 5 5 7 8 4
16 17 17 17 15 15 14 13 11 12 11 9 7 6 5 3 3 4 3 4 5 5 6 5 5 5 5 4 3 5 5 4 6 4 3 2 2 4 5 5 4 5 6
17 18 17 17 16 15 15 12 11 12 10 8 7 6 4 4 4 3 4 5 7 7 6 5 4 4 4 2 1 2 4 4 5 5 5 5 5 6 6 5 5 6 4
18 18 18 17 17 15 14 13 12 11 10 8 7 6 5 4 3 4 6 6 7 7 7 6 5 4 2 3 4 5 4 5 5 4 5 7 7 8 5 5 7 8 8
20 19 18 17 16 15 14 13 12 11 9 8 7 6 5 3 4 4 6 5 7 7 6 6 6 3 3 4 4 5 6 6 7 6 5 7 8 7 4 3 8 9 8
20 18 18 17 16 15 14 13 12 11 9 7 7 7 5 4 5 5 7 7 7 7 7 6 7 5 5 4 5 5 6 5 7 7 7 8 9 7 6 6 8 10 10
20 19 18 17 16 15 14 13 12 11 9 8 7 6 6 6 6 6 7 7 7 7 8 9 8 6 5 4 5 6 7 6 6 7 7 7 8 10 6 5 10 11 8
19 20 19 18 17 16 15 13 12 11 10 8 8 7 7 7 7 7 7 8 8 8 8 9 8 7 4 6 5 4 7 7 7 8 9 11 12 11 11 12 11 8 11
20 21 20 18 16 16 15 14 13 12 11 9 8 8 8 8 8 8 8 9 8 7 7 8 8 6 9 5 3 1 6 8 7 10 8 8 8 11 12 15 15 14 13
18 19 18 18 17 16 16 15 14 13 12 10 9 9 8 9 8 8 9 8 8 7 6 4 8 8 7 6 3 4 6 7 8 9 10 10 12 11 10 14 12 10 10
14 16 18 18 17 17 17 16 15 14 13 11 11 10 9 9 8 8 9 9 9 6 6 7 8 9 7 3 5 5 6 9 8 9 7 11 13 10 10 15 11 11 8
12 16 19 18 18 18 18 17 16 15 14 13 12 11 10 10 8 8 8 8 8 10 8 9 8 8 5 4 5 2 6 5 7 8 10 16 11 10 10 9 12 10 9
13 15 18 19 19 19 19 17 16 16 14 13 12 12 11 10 9 8 7 9 8 10 10 9 9 9 7 4 6 8 5 8 6 8 10 7 8 9 6 5 8 10 12
14 18 17 18 19 20 19 18 17 16 15 14 14 13 12 10 9 9 8 8 9 9 10 10 9 7 7 7 5 2 8 8 10 9 9 7 8 9 7 1 11 11 12
12 16 16 18 18 20 20 19 17 17 16 16 14 13 13 11 11 10 9 8 9 8 9 8 9 9 8 7 7 4 8 3 10 9 11 14 8 9 10 8 10 10 8
12 15 18 20 20 20 20 18 18 18 17 16 16 13 13 12 12 9 9 8 8 8 8 8 8 9 9 9 9 9 7 9 10 11 9 7 6 7 11 8 6 7 8
12 16 18 19 21 20 20 19 20 19 17 16 15 14 12 12 12 10 9 9 8 6 7 7 8 9 9 10 10 11 10 9 10 10 8 8 8 8 8 8 7 7 6
12 15 18 18 20 21 21 21 21 21 19 17 14 13 12 12 11 11 8 9 7 7 6 5 1 7 6 15 11 6 9 13 15 9 9 9 9 10 10 9 9 8 8
Wind_Direction
291 287 307 292 210 181 179 184 178 163 165 161 169 175 196 203 216 230 239 252 250 245 236 214 209 218 240 233 235 237 239 227 219 193 198 200 205 211 210 203 193 207 204
289 287 283 229 173 165 165 164 162 162 165 164 175 189 199 200 237 252 251 253 250 231 224 225 213 208 217 224 225 224 225 221 207 200 193 181 179 202 200 191 186 191 198
278 274 214 188 164 159 156 157 157 160 162 151 151 160 151 213 214 199 216 202 227 225 211 206 207 204 229 216 223 222 217 213 200 210 221 199 189 155 178 192 180 185 185
261 241 184 169 164 152 155 154 154 154 153 166 165 175 226 250 74 248 205 232 227 224 216 206 210 213 191 225 218 218 220 204 193 188 227 270 163 183 163 179 179 177 165
255 188 176 159 151 149 148 146 147 153 147 159 166 179 229 166 193 209 225 243 225 211 206 197 200 204 214 215 217 185 216 196 211 180 188 237 197 181 196 148 156 104 152
185 158 144 147 143 143 142 144 145 144 152 159 158 177 167 205 235 228 258 302 179 199 202 192 198 210 206 183 192 186 204 201 209 215 209 211 223 182 176 143 137 122 99
157 149 150 147 148 146 145 145 148 149 157 162 165 162 163 181 220 251 278 248 208 182 169 181 183 194 177 178 171 191 202 213 225 213 203 209 237 286 176 147 120 112 83
153 154 150 148 148 149 150 149 152 155 163 165 162 161 152 193 244 208 335 276 177 196 141 180 178 190 178 168 180 192 198 211 210 169 182 239 263 255 165 149 147 123 103
155 152 146 152 150 152 152 150 155 157 164 165 162 158 165 218 34 117 122 173 172 132 164 161 155 130 152 153 167 193 199 198 145 130 165 211 239 220 137 152 164 145 141
157 151 152 154 151 151 149 150 158 158 162 161 166 159 156 155 144 133 148 141 132 161 159 166 140 132 145 151 167 174 179 172 124 179 222 230 161 125 124 143 132 114 107
157 155 155 155 152 151 150 151 163 158 162 163 159 155 145 125 167 146 153 152 159 164 166 164 129 113 117 134 152 166 136 128 166 159 174 149 151 116 126 125 121 115 109
154 157 156 157 152 156 151 159 166 164 162 160 161 148 141 140 155 148 135 166 163 168 164 163 138 118 158 131 138 157 144 138 119 126 157 163 150 127 141 140 145 131 104
155 157 157 159 157 156 161 163 170 163 160 163 161 144 149 139 128 136 131 170 157 160 162 166 116 138 152 129 139 134 118 139 130 159 140 139 155 112 113 146 143 131 126
159 158 161 163 158 161 168 165 169 159 159 163 166 135 139 131 137 128 119 149 146 150 151 143 105 131 118 113 136 116 113 119 133 140 150 139 133 140 121 128 127 130 127
166 162 165 165 160 165 168 170 164 161 158 162 158 136 139 142 139 122 124 128 139 142 130 122 126 128 124 116 121 122 120 125 123 112 103 86 85 108 127 128 128 127 132
169 166 167 166 166 168 172 168 164 161 159 161 152 149 144 154 136 134 134 133 131 139 140 134 125 121 115 82 70 112 124 123 114 107 95 100 104 85 75 84 82 112 130
170 170 172 170 168 170 173 169 164 162 163 165 147 156 147 153 148 144 136 129 128 135 130 123 118 124 124 115 104 50 121 121 131 105 114 108 114 121 106 88 86 79 80
173 173 173 169 169 170 172 167 164 167 168 168 157 156 162 149 146 144 133 134 132 124 124 83 127 132 122 137 163 283 147 123 124 126 131 136 122 113 126 113 95 79 87
181 180 171 167 166 172 169 168 166 172 173 169 163 164 156 154 150 144 144 141 120 124 134 138 140 136 140 175 199 251 148 135 120 123 110 116 102 108 102 118 100 94 84
187 178 171 167 168 172 170 170 170 177 179 172 168 167 159 152 152 141 144 152 140 118 129 138 133 130 146 185 186 185 117 121 119 111 100 69 95 99 114 115 121 114 124
183 181 177 171 170 169 171 177 174 181 179 172 168 167 163 159 144 143 147 155 157 120 127 123 142 142 140 138 147 129 135 131 124 120 118 116 106 98 100 151 128 127 135
187 183 181 175 170 170 175 180 179 179 177 173 173 168 165 174 155 152 152 158 148 145 136 139 137 138 149 132 134 161 163 172 128 139 139 128 102 84 49 41 108 130 153
198 183 185 178 176 174 180 181 177 179 177 174 175 171 171 179 162 163 162 160 169 159 159 162 140 142 148 142 107 143 141 150 151 158 123 119 120 115 88 102 132 174 149
209 190 186 183 182 180 183 184 174 180 176 176 175 175 178 178 173 175 174 171 178 171 173 162 152 147 149 147 155 154 152 133 114 124 124 133 121 47 99 145 189 174 162
200 204 195 190 185 183 182 182 176 178 178 179 178 178 183 186 178 195 182 184 186 183 179 165 161 162 169 161 158 166 169 172 141 139 153 171 179 171 163 163 180 155 158
207 208 201 193 187 184 185 182 179 178 178 181 181 182 183 179 187 191 175 56 27 120 58 29 131 141 111 125 142 136 105 114 147 185 178 181 182 183 181 179 182 185 188